Home   Weather   Bocholt   Past weeks

Flag for Germany Past Weather in Bocholt, North Rhine-Westphalia, Germany — Yesterday and Last 2 Weeks

46 °F


Feels Like: 46 °F
Forecast: 44 / 58 °F
Wind: No wind

Location: Niederrhein

Current Time: Oct 26, 2016 at 7:56:12 AM

Latest Report: Oct 26, 2016 at 7:20 AM

Visibility: 1 mi

Pressure: 30.36 "Hg

Humidity: 100%

Dew Point: 46 °F

Location of BocholtLocation

Past Weather in Bocholt — Graph


Bocholt Temperature Yesterday

Maximum temperature yesterday: 50 °F (at 1:50 PM)
Minimum temperature yesterday: 46 °F (at 5:50 AM)
Average temperature yesterday: 48 °F

High & Low Weather Summary for the Past Weeks

High66 °F (Oct 16, 2:50 PM)100% (Oct 11, 6:20 AM)30.36 "Hg (Oct 11, 6:20 AM)
Low32 °F (Oct 23, 4:50 AM)60% (Oct 16, 2:50 PM)29.65 "Hg (Oct 15, 4:50 AM)
Average49 °F91%30.00 "Hg
* Reported Oct 11 6:20 AM — Oct 26 6:50 AM, Bocholt, Weather by CustomWeather, © 2016

Note: Actual official high and low records may vary slightly from our data, if they occured in-between our weather recording intervals... More about our weather records


Bocholt Weather History for the Previous 24 Hours

Scroll right to see more
Time TempWeatherWind HumidityBarometerVisibility
6:50 AM
Wed, Oct 26
48 °FFog.No wind100%30.36 "Hg2 mi
6:20 AM46 °FFog.No wind100%30.36 "Hg1 mi
5:50 AM46 °FFog.No wind100%30.33 "Hg1 mi
11:50 PM
Tue, Oct 25
48 °FFog.No wind100%30.33 "Hg2 mi
11:20 PM48 °FFog.1 mph100%30.33 "Hg3 mi
10:50 PM48 °FFog.No wind100%30.33 "Hg3 mi
10:20 PM48 °FFog.No wind100%30.33 "Hg3 mi
9:50 PM48 °FFog.No wind100%30.33 "Hg3 mi
9:20 PM48 °FFog.No wind100%30.33 "Hg3 mi
8:50 PM48 °FFog.1 mph100%30.30 "Hg3 mi
8:20 PM48 °FPassing clouds.No wind100%30.30 "Hg4 mi
7:50 PM48 °FPassing clouds.No wind100%30.30 "Hg4 mi
7:20 PM48 °FPassing clouds.No wind100%30.27 "Hg5 mi
6:50 PM48 °FPartly sunny.No wind100%30.27 "Hg6 mi
6:20 PM48 °FPartly sunny.No wind100%30.27 "HgN/A
5:50 PM48 °FPartly sunny.1 mph100%30.27 "HgN/A
5:20 PM50 °FPartly sunny.No wind94%30.27 "Hg5 mi
4:50 PM50 °FPartly sunny.No wind100%30.27 "Hg6 mi
4:20 PM50 °FPartly sunny.1 mph100%30.24 "HgN/A
3:50 PM50 °FPartly sunny.No wind100%30.24 "HgN/A
3:20 PM50 °FPartly sunny.No wind100%30.24 "HgN/A
2:50 PM50 °FPartly sunny.No wind100%30.24 "HgN/A
2:20 PM50 °FBroken clouds.1 mph100%30.24 "Hg6 mi
1:50 PM50 °FPartly sunny.No wind100%30.21 "Hg6 mi
1:20 PM48 °FPartly sunny.1 mph100%30.21 "Hg6 mi
12:50 PM48 °FPartly sunny.No wind100%30.21 "HgN/A
11:50 AM48 °FPartly sunny.2 mph100%30.21 "HgN/A
11:20 AM48 °FBroken clouds.3 mph100%30.18 "Hg5 mi
10:50 AM46 °FFog.2 mph100%30.18 "Hg3 mi
10:20 AM46 °FFog.2 mph100%30.18 "Hg1 mi
9:50 AM46 °FDrizzle. Fog.2 mph100%30.18 "Hg2 mi
9:20 AM46 °FFog.2 mph100%30.15 "Hg2 mi
8:50 AM46 °FFog.3 mph100%30.15 "Hg2 mi
8:20 AM46 °FFog.3 mph100%30.12 "Hg2 mi
7:50 AM46 °FFog.2 mph100%30.12 "Hg2 mi
7:20 AM46 °FFog.1 mph100%30.09 "Hg2 mi
Weather by CustomWeather, © 2016

See weather overviewHow to use our weather pages